Regional Weather Roundup
Issued by NWS

Home | Current Version | Previous Version | Text Only | Print | Product List | Glossary On
Versions: 1 2 3 4 5 6 7 8 9 10 11 12 13 14 15 16 17 18 19 20 21 22 23 24 25 26 27 28 29 30 31 32 33 34 35 36 37 38 39 40 41 42 43 44 45 46 47 48 49 50
000
ASHW40 PHFO 020730
RWRHI

WEATHER ROUNDUP FOR HAWAII
NATIONAL WEATHER SERVICE HONOLULU HI
900 PM HST WED OCT 01 2014

THIS IS AN AUTOMATED REPORT THAT HAS NOT BEEN QUALITY CONTROLLED.

NOTE..."FAIR" INDICATES FEW OR NO CLOUDS BELOW 12,000 FEET WITH NO
SIGNIFICANT WEATHER AND/OR OBSTRUCTIONS TO VISIBILITY.

* - THESE SITES REPORT LIMITED FIELDS

HIZ001>004-020800-
KAUAI-NIIHAU-

CITY           SKY/WX    TMP DP  RH WIND       PRES   REMARKS
LIHUE APT      CLOUDY    77  72  84 W5        29.97R
PORT ALLEN*      N/A     77 N/A N/A NE5         N/A
POIPU*           N/A     75 N/A N/A VRB3        N/A
PRINCEVILLE*   NOT AVBL
KOKOLE POINT*  NOT AVBL
MOLOAA DAIRY*  NOT AVBL
WAIMEA HTS*    NOT AVBL
PUU OPAE*      NOT AVBL
PUU LUA*       NOT AVBL
MAKAHA RIDGE*  NOT AVBL
$$

HIZ005>011-020800-
OAHU-

CITY           SKY/WX    TMP DP  RH WIND       PRES   REMARKS
HONOLULU       PTCLDY    80  70  71 N3        29.95R
KALAELOA       CLEAR     76  72  87 CALM      29.97R
KANEOHE MCB    PTCLDY    77  72  84 CALM      29.96R
WHEELER FIELD  FAIR      71  68  90 W5        29.97R
BELLOWS*         N/A    N/A N/A N/A E7          N/A
KAHUKU*          N/A    N/A N/A N/A E2          N/A
WHEELER*       NOT AVBL
WAIANAE HARBOR NOT AVBL
DILLINGHAM*      N/A     73  70  88 CALM        N/A
KAHUKU TRN*      N/A     75  72  88 E5G10       N/A
KAWAILOA*      NOT AVBL
KII*             N/A     77  72  83 SE3G9       N/A
MAKUA RANGE*     N/A     75  72  88 E3          N/A
OAHU FOREST NW NOT AVBL
SCHOFIELD BRK*   N/A     72  72 100 MISG        N/A
SCHOFIELD S*   NOT AVBL
WAIANAE VLY*   NOT AVBL
KUAOKALA*      NOT AVBL
HONOULIUULI*   NOT AVBL
MOKUOLOE IS*     N/A    N/A N/A N/A MISG        N/A
PALEHUA*       NOT AVBL
WAIAWA PHB*    NOT AVBL
$$

HIZ012>013-020800-
MOLOKAI-

CITY           SKY/WX    TMP DP  RH WIND       PRES   REMARKS
MOLOKAI AIRPT  CLEAR     75  72  90 NE6       29.97R
KALAUPAPA      NOT AVBL
MAKAPULAPAI*   NOT AVBL
MOLOKAI 1*     NOT AVBL
PUU ALII*        N/A     60  59  95 E1          N/A
$$

HIZ016-020800-
KAHOOLAWE-

CITY           SKY/WX    TMP DP  RH WIND       PRES   REMARKS
KAHOOLAWE*     NOT AVBL
HAKIOAWA*      NOT AVBL
HONOKANAIA*      N/A     81  71  72 NE7G14    29.96R
KANELOA*         N/A     77  70  78 NE13G21   29.17R
KEALIALALO*    NOT AVBL
LUA MAKIKA*    NOT AVBL
$$

HIZ014>015-020800-
LANAI-

CITY           SKY/WX    TMP DP  RH WIND       PRES   REMARKS
LANAI CITY     FAIR      74  70  87 NE15      30.01R
LANAI 1*       NOT AVBL
$$

HIZ017>028-020800-
MAUI-

CITY           SKY/WX    TMP DP  RH WIND       PRES   REMARKS
KAHULUI        PTCLDY    78  70  76 NE10      29.95R
KAPALUA-W MAUI NOT AVBL
HANA AIRPORT   PTCLDY    73  72  94 CALM      30.00R
HANA*            N/A     75 N/A N/A S3          N/A
HALEAKALA SUMM   N/A     45  32  61 NE5         N/A
MAALAEA BAY*   NOT AVBL
HALEAKALA*     NOT AVBL
KAUPO GAP*     NOT AVBL
KULA 1*          N/A     52  41  67 E2          N/A
$$

HIZ023>026-020800-
BIG ISLAND OF HAWAII COAST AND LOWER SLOPES-

CITY           SKY/WX    TMP DP  RH WIND       PRES   REMARKS
KAILUA KONA    CLEAR     80  72  76 SE8       29.93R
HILO           CLEAR     76  72  87 SW5       29.96R
HONOKAA*       NOT AVBL
KAWAIHAE MWT*    N/A     82 N/A N/A SW2         N/A
KAWAIHAE*        N/A     81 N/A N/A SW2         N/A
SOUTH POINT*     N/A     70 N/A N/A N6          N/A
UPOLU AIRPORT*   N/A    N/A N/A N/A E9          N/A
KAMUELA*       SUNNY     66  63  88 NE7       30.08R
HAKALAU*         N/A     46  43  87 W3          N/A
KALOKO-HONOKO*   N/A     79  70  73 E3        29.93R
PALI 2*          N/A     68  -9   4 E1G13       N/A
KEALAKOMO*       N/A     81  68  65 NE9G16      N/A
KAUPULEHU*     NOT AVBL
KAPAPALA*        N/A     67  65  93 CALM        N/A
LOWER KAHUKU*  NOT AVBL
PUHE CS*       NOT AVBL
PUHO CS*         N/A     78  70  77 NE2         N/A
PTA KEAMUKU*     N/A     63  59  88 E6          N/A
WAIKOLOA*      NOT AVBL
$$

HIZ027>028-020800-
BIG ISLAND OF HAWAII INTERIOR AND SUMMMITS-

CITY           SKY/WX    TMP DP  RH WIND       PRES   REMARKS
BRADSHAW FIELD CLEAR     54  51  89 SE2       30.32R
MK VISITOR CEN NOT AVBL
MAUNA KEA*       N/A     34  23  64 NW12        N/A  WCI  25
MAUNA LOA*       N/A    N/A N/A N/A MISG        N/A
MAUNA LOA 1*   NOT AVBL
PTA KIPUKA*      N/A    N/A N/A N/A VRB3        N/A
PTA RANGE 17*    N/A     72  70  94 E2          N/A
PTA WEST*        N/A     59  59 100 SE6         N/A
NENE CABIN*    NOT AVBL
AHUMOA*        NOT AVBL
PTA PORTABLE*  NOT AVBL
PUU MALI*      NOT AVBL
$$

HIC003-020800-
NORTHWEST ISLANDS-

CITY           SKY/WX    TMP DP  RH WIND       PRES   REMARKS
MIDWAY ISLAND  CLEAR     82  75  78 W9        29.82R
MIDWAY NOS*    NOT AVBL
FRENCH FRIGATE NOT AVBL
$$

PHZ110>124-180-020800-
BUOY REPORTS

STATION/POSITION TIME  TEMP    WIND        PRES    WAVE   SWELL
                       AIR SEA DIR/SP/G            HT/PER HT/DIR
                 (UTC) (F)     (DEG/KT/KT) (MB)    (FT/S) (FT/D)
BUOY 51001       NOT AVBL
BUOY 51101       NOT AVBL
BUOY 51100       0700   79 81   80/  8/ 10 1015.2R
BUOY 51003       0700   82 84   50/  6/  8 1014.1R   7/14   7
BUOY 51004       0643   81 81   70/ 16/ 17 1012.5R   8/16   7/310
BARBERS PT BUOY  NOT AVBL
WAIMEA BAY BUOY  0700      83                N/A     4/14   3/310
KAILUA BAY BUOY  0700      82                N/A     4/13   2/ 20
LANAI BUOY       NOT AVBL
BARBERS PT 2     0700      83                N/A     4/17   3/180
PAUWELA MAUI     0700      81                N/A     6/14   5/320
HILO             0700      82                N/A     5/14   3/320
KANEOHE BAY BUOY NOT AVBL
HANALEI KAUAI    NOT AVBL
KAHULUI HARBOR   0700   80 82   20/  7/  9 1014.3R
HONOLULU HARBOR  0700   81      60/  1/  3 1014.6R
KILO NALU        NOT AVBL
HILO HARBOR      0700   77     220/  4/  4 1014.3R
MOKUOLOE         0700      85              1014.8R
NAWILIWILI       0700      83                N/A
WHOTS BUOY       NOT AVBL
BUOY 51028       NOT AVBL
$$

......................KEY........................................
  SKY/WX - SKY CONDITIONS/PRESENT WEATHER
  TMP    - TEMPERATURE IN FAHRENHEIT
  DWPT   - DEWPOINT IN FAHRENHEIT
  RH     - RELATIVE HUMIDITY IN PERCENT
  WIND   - DIRECTION AND SPEED /MPH FOR ISLANDS...KTS FOR BUOYS/
  PRES   - MEAN SEA LEVEL PRESSURE IN INCHES OF HG
  VSB    - VISIBILITY IN MILES
  HX     - HEAT INDEX
  WCI    - WIND CHILL INDEX
  VRB    - VARIABLE WIND DIRECTION
  N/A    - NOT AVAILABLE


USA.gov is the U.S. government's official web portal to all federal, state and local government web resources and services.